Terminal Aerodrome Forecast
Issued by NWS Portland, OR

Home | Current Version | Previous Version | Text Only | Print | Product List | Glossary On
Versions: 1 2 3 4 5 6 7 8 9 10 11 12 13 14 15 16 17 18 19 20 21 22 23 24 25
000
FTUS46 KPQR 300814 AAA
TAFPDX
TAF AMD
KPDX 300814Z 3008/3106 21003KT P6SM BKN023
     FM301700 20004KT P6SM BKN035
     FM302000 27006KT P6SM BKN050
     FM310100 32005KT P6SM BKN100=

USA.gov is the U.S. government's official web portal to all federal, state and local government web resources and services.